^^
Grace C. Lehan Memorial Weather Station Historical Data
 
Daily Summary for June 16, 2019 Units:  English    Metric   Both
Daily Weekly Monthly Yearly Custom
  Current: High: Low: Average:
Temperature: 64 °F 69 °F 63.8 °F 65.7 °F
Dew Point: 62.54 °F 62.64 °F 58.82 °F 61.2 °F
Humidity: 95% 95% 70% 86%
Wind Speed: 0mph 1mph 0mph 0mph
Wind Gust: 4mph 7mph - -
WindCalm - - SW
Pressure: 29.87 in 29.91 in 29.87 in -
Precipitation: 0 in      
Historical Graphs
 
 
Tabular Data for June 16, 2019
Time Temperature Dew Point Pressure Wind Wind Speed Wind Gust Humidity Rainfall Rate (Hourly) solar
00:04 69 °F 58.82 °F 29.89 in Calm   1 mph 70% 0 in 0.00 W/m2
00:09 69 °F 58.82 °F 29.89 in Calm   2 mph 70% 0 in 0.00 W/m2
00:14 69 °F 58.82 °F 29.89 in Calm   4 mph 70% 0 in 0.00 W/m2
00:19 69 °F 58.82 °F 29.89 in Calm   4 mph 70% 0 in 0.00 W/m2
00:24 69 °F 59.22 °F 29.89 in Calm   4 mph 71% 0 in 0.00 W/m2
00:29 69 °F 59.22 °F 29.89 in Calm   4 mph 71% 0 in 0.00 W/m2
00:34 68.8 °F 59.02 °F 29.89 in Calm     71% 0 in 0.00 W/m2
00:39 68.8 °F 59.02 °F 29.89 in Calm     71% 0 in 0.00 W/m2
00:44 68.7 °F 58.93 °F 29.88 in Calm   1 mph 71% 0 in 0.00 W/m2
00:49 68.6 °F 59.22 °F 29.88 in Calm   1 mph 72% 0 in 0.00 W/m2
00:54 68.6 °F 59.22 °F 29.88 in Calm   1 mph 72% 0 in 0.00 W/m2
00:59 68.6 °F 59.22 °F 29.88 in Calm   1 mph 72% 0 in 0.00 W/m2
01:04 68.5 °F 59.13 °F 29.88 in Calm     72% 0 in 0.00 W/m2
01:09 68.5 °F 59.9 °F 29.88 in Calm   1 mph 74% 0 in 0.00 W/m2
01:14 68.4 °F 59.8 °F 29.88 in Calm   1 mph 74% 0 in 0.00 W/m2
01:19 68.3 °F 59.7 °F 29.89 in Calm   1 mph 74% 0 in 0.00 W/m2
01:24 68.2 °F 59.61 °F 29.89 in Calm   1 mph 74% 0 in 0.00 W/m2
01:29 68.1 °F 59.51 °F 29.89 in Calm   1 mph 74% 0 in 0.00 W/m2
01:34 68 °F 59.41 °F 29.89 in Calm     74% 0 in 0.00 W/m2
01:39 68 °F 59.41 °F 29.89 in Calm     74% 0 in 0.00 W/m2
01:44 68 °F 59.41 °F 29.89 in Calm     74% 0 in 0.00 W/m2
01:49 68.1 °F 59.89 °F 29.90 in Calm     75% 0 in 0.00 W/m2
01:54 68.1 °F 60.26 °F 29.90 in Calm     76% 0 in 0.00 W/m2
01:59 68 °F 60.53 °F 29.90 in Calm     77% 0 in 0.00 W/m2
02:04 67.9 °F 60.8 °F 29.90 in Calm     78% 0 in 0.00 W/m2
02:09 67.7 °F 60.6 °F 29.90 in Calm     78% 0 in 0.00 W/m2
02:14 67.6 °F 60.86 °F 29.90 in Calm     79% 0 in 0.00 W/m2
02:19 67.4 °F 61.37 °F 29.90 in Calm     81% 0 in 0.00 W/m2
02:24 67.1 °F 61.43 °F 29.90 in Calm     82% 0 in 0.00 W/m2
02:29 66.8 °F 61.48 °F 29.90 in Calm     83% 0 in 0.00 W/m2
02:34 66.3 °F 61.66 °F 29.91 in Calm   4 mph 85% 0 in 0.00 W/m2
02:39 65.9 °F 61.6 °F 29.90 in Calm   4 mph 86% 0 in 0.00 W/m2
02:44 65.7 °F 61.73 °F 29.90 in SW 1 mph 4 mph 87% 0 in 0.00 W/m2
02:49 65.4 °F 61.44 °F 29.90 in Calm   7 mph 87% 0 in 0.00 W/m2
02:54 65.2 °F 61.56 °F 29.90 in Calm   7 mph 88% 0 in 0.00 W/m2
02:59 65 °F 61.68 °F 29.90 in Calm   7 mph 89% 0 in 0.00 W/m2
03:04 64.8 °F 61.49 °F 29.90 in Calm     89% 0 in 0.00 W/m2
03:09 64.7 °F 61.7 °F 29.90 in Calm     90% 0 in 0.00 W/m2
03:14 64.7 °F 61.7 °F 29.90 in Calm     90% 0 in 0.00 W/m2
03:19 64.5 °F 61.82 °F 29.90 in Calm     91% 0 in 0.00 W/m2
03:24 64.4 °F 61.72 °F 29.90 in Calm     91% 0 in 0.00 W/m2
03:29 64.3 °F 61.62 °F 29.90 in Calm     91% 0 in 0.00 W/m2
03:34 64.3 °F 61.93 °F 29.90 in Calm     92% 0 in 0.00 W/m2
03:39 64.3 °F 61.93 °F 29.89 in Calm     92% 0 in 0.00 W/m2
03:44 64.2 °F 61.83 °F 29.89 in Calm     92% 0 in 0.00 W/m2
03:49 64.2 °F 61.83 °F 29.89 in Calm     92% 0 in 0.00 W/m2
03:54 64.1 °F 61.73 °F 29.89 in Calm     92% 0 in 0.00 W/m2
03:59 64.1 °F 62.04 °F 29.89 in Calm     93% 0 in 0.00 W/m2
04:04 64 °F 61.94 °F 29.89 in Calm     93% 0 in 0.00 W/m2
04:09 64 °F 61.94 °F 29.89 in Calm     93% 0 in 0.00 W/m2
04:14 64 °F 61.94 °F 29.89 in Calm     93% 0 in 0.00 W/m2
04:19 63.9 °F 61.84 °F 29.89 in Calm     93% 0 in 0.00 W/m2
04:24 63.9 °F 61.84 °F 29.89 in Calm     93% 0 in 0.00 W/m2
04:29 63.9 °F 61.84 °F 29.89 in Calm     93% 0 in 0.00 W/m2
04:34 63.9 °F 61.84 °F 29.89 in Calm     93% 0 in 0.00 W/m2
04:39 63.9 °F 62.14 °F 29.89 in Calm     94% 0 in 0.00 W/m2
04:44 63.9 °F 61.84 °F 29.88 in Calm     93% 0 in 0.00 W/m2
04:49 63.9 °F 62.14 °F 29.88 in Calm     94% 0 in 0.00 W/m2
04:54 63.9 °F 62.14 °F 29.88 in Calm     94% 0 in 0.00 W/m2
04:59 63.9 °F 62.14 °F 29.88 in Calm     94% 0 in 0.00 W/m2
05:04 63.9 °F 62.14 °F 29.88 in Calm     94% 0 in 0.00 W/m2
05:09 64 °F 62.24 °F 29.88 in Calm     94% 0 in 0.00 W/m2
05:14 63.9 °F 62.14 °F 29.89 in Calm     94% 0 in 0.00 W/m2
05:19 63.9 °F 62.14 °F 29.88 in Calm     94% 0 in 0.00 W/m2
05:24 63.9 °F 62.14 °F 29.89 in Calm     94% 0 in 0.00 W/m2
05:29 63.8 °F 62.04 °F 29.88 in Calm     94% 0 in 0.00 W/m2
05:34 63.9 °F 62.14 °F 29.89 in Calm     94% 0 in 0.00 W/m2
05:39 63.9 °F 62.14 °F 29.89 in Calm     94% 0 in 0.00 W/m2
05:44 63.9 °F 62.14 °F 29.89 in Calm     94% 0 in 0.00 W/m2
05:49 63.9 °F 62.14 °F 29.89 in Calm     94% 0 in 0.00 W/m2
05:54 64 °F 62.24 °F 29.88 in Calm     94% 0 in 0.00 W/m2
05:59 63.9 °F 62.14 °F 29.88 in Calm     94% 0 in 5.00 W/m2
06:04 64 °F 62.24 °F 29.88 in Calm     94% 0 in 9.00 W/m2
06:09 64 °F 62.24 °F 29.88 in Calm     94% 0 in 9.00 W/m2
06:14 64 °F 62.24 °F 29.89 in Calm     94% 0 in 5.00 W/m2
06:19 64 °F 62.24 °F 29.89 in Calm     94% 0 in 11.00 W/m2
06:24 64.1 °F 62.64 °F 29.89 in Calm     95% 0 in 12.00 W/m2
06:29 64.1 °F 62.64 °F 29.89 in Calm     95% 0 in 11.00 W/m2
06:34 64.1 °F 62.64 °F 29.88 in Calm     95% 0 in 7.00 W/m2
06:39 64.1 °F 62.64 °F 29.87 in Calm     95% 0 in 7.00 W/m2
06:44 64.1 °F 62.64 °F 29.87 in Calm     95% 0 in 7.00 W/m2
06:49 64 °F 62.54 °F 29.87 in Calm   4 mph 95% 0 in 18.00 W/m2
Grace C. Lehan Memorial Weather Station
Compliments of Weather Underground - 2 mb